Temp
-12 -12 -12 -12 -12 -12 -12 -12 -12 -12 -11 -11 -11 -12 -12 -12 -13 -13 -13 -13 -13 -13 -12 -12 -12 -12 -12 -12 -12 -11 -11 -11 -11 -11 -11 -11 -11 -11 -11 -11 -11 -11 -11
-12 -12 -12 -12 -12 -12 -12 -12 -12 -12 -12 -12 -12 -12 -12 -13 -13 -13 -13 -13 -13 -13 -13 -12 -12 -12 -12 -12 -12 -12 -12 -11 -11 -12 -12 -11 -11 -12 -12 -11 -11 -11 -11
-13 -13 -12 -13 -13 -13 -12 -13 -13 -13 -12 -12 -12 -12 -12 -13 -13 -13 -13 -13 -13 -13 -13 -13 -13 -13 -12 -12 -12 -12 -12 -12 -12 -12 -12 -12 -12 -12 -12 -12 -12 -11 -11
-13 -13 -13 -13 -13 -13 -13 -13 -13 -13 -13 -12 -13 -13 -13 -13 -13 -14 -14 -14 -14 -14 -13 -13 -13 -13 -13 -13 -12 -12 -12 -12 -12 -12 -12 -12 -12 -12 -12 -12 -12 -12 -12
-14 -13 -13 -13 -13 -13 -13 -13 -13 -13 -13 -13 -13 -13 -13 -13 -13 -14 -14 -14 -14 -14 -14 -14 -13 -13 -13 -13 -13 -13 -13 -12 -12 -12 -12 -12 -12 -12 -12 -12 -12 -12 -12
-14 -14 -13 -13 -13 -13 -13 -13 -13 -13 -13 -13 -13 -13 -13 -13 -13 -14 -14 -14 -14 -14 -14 -14 -14 -14 -14 -13 -13 -13 -13 -13 -13 -13 -13 -12 -12 -12 -13 -13 -13 -13 -13
-13 -14 -14 -14 -13 -13 -13 -13 -13 -13 -13 -13 -13 -13 -13 -14 -14 -14 -14 -14 -14 -14 -14 -14 -14 -14 -14 -14 -13 -13 -13 -13 -13 -13 -13 -13 -13 -13 -13 -13 -13 -13 -14
-13 -13 -13 -14 -14 -14 -14 -14 -14 -14 -14 -13 -14 -14 -14 -14 -14 -14 -14 -14 -14 -14 -14 -14 -14 -14 -14 -14 -13 -13 -13 -13 -13 -13 -13 -13 -13 -13 -14 -14 -14 -14 -14
-13 -13 -13 -14 -14 -14 -14 -14 -14 -14 -14 -14 -14 -14 -14 -14 -14 -14 -14 -14 -14 -14 -14 -14 -14 -14 -14 -14 -14 -14 -14 -14 -14 -14 -14 -14 -14 -14 -14 -14 -14 -14 -14
-13 -13 -13 -13 -14 -14 -14 -14 -14 -14 -14 -14 -14 -14 -14 -14 -14 -14 -14 -14 -14 -14 -14 -14 -14 -14 -14 -14 -14 -14 -14 -14 -14 -14 -14 -14 -14 -14 -14 -14 -14 -14 -14
-14 -13 -13 -14 -14 -14 -14 -14 -14 -14 -15 -15 -15 -15 -15 -15 -15 -15 -15 -15 -15 -15 -15 -15 -14 -14 -14 -14 -14 -15 -15 -15 -15 -15 -15 -15 -15 -15 -15 -15 -15 -15 -15
-13 -14 -14 -14 -14 -14 -14 -14 -14 -15 -15 -15 -15 -15 -15 -15 -15 -15 -15 -15 -15 -15 -15 -15 -15 -15 -15 -15 -15 -15 -15 -15 -16 -16 -16 -16 -16 -16 -16 -16 -16 -16 -16
-13 -14 -14 -14 -14 -14 -14 -14 -15 -15 -15 -15 -15 -15 -15 -15 -15 -15 -15 -15 -15 -15 -16 -17 -17 -16 -16 -16 -16 -16 -16 -16 -16 -16 -16 -16 -16 -16 -16 -16 -16 -16 -17
-13 -14 -14 -14 -14 -14 -14 -14 -15 -15 -15 -15 -15 -15 -15 -15 -15 -15 -15 -15 -15 -15 -16 -17 -17 -17 -17 -17 -16 -16 -16 -16 -17 -17 -17 -17 -17 -17 -17 -17 -17 -17 -17
-14 -14 -14 -14 -14 -14 -14 -15 -15 -15 -14 -15 -15 -15 -15 -15 -15 -15 -15 -15 -15 -15 -15 -17 -18 -18 -17 -17 -17 -17 -17 -17 -17 -17 -17 -18 -18 -18 -18 -17 -17 -17 -17
-14 -14 -14 -14 -14 -15 -15 -15 -14 -14 -15 -15 -15 -15 -15 -15 -16 -16 -16 -16 -16 -16 -16 -16 -17 -17 -17 -18 -18 -17 -18 -18 -18 -18 -18 -18 -18 -18 -18 -18 -18 -17 -17
-14 -14 -14 -14 -15 -15 -15 -14 -15 -15 -16 -16 -15 -16 -16 -16 -16 -16 -16 -17 -17 -17 -17 -17 -17 -17 -17 -18 -18 -18 -18 -18 -19 -19 -19 -18 -18 -18 -18 -18 -17 -17 -17
-14 -14 -15 -15 -15 -14 -15 -14 -15 -15 -16 -16 -16 -16 -16 -17 -17 -17 -17 -17 -18 -18 -18 -18 -18 -18 -18 -18 -18 -18 -19 -19 -19 -19 -19 -19 -19 -18 -18 -18 -18 -18 -19
-14 -15 -15 -15 -15 -15 -14 -15 -15 -16 -16 -16 -16 -16 -17 -17 -17 -17 -18 -18 -18 -18 -18 -18 -18 -18 -18 -19 -19 -19 -19 -19 -19 -19 -19 -19 -18 -18 -19 -19 -20 -23 -23
-15 -15 -15 -15 -15 -15 -15 -15 -15 -16 -16 -16 -16 -17 -17 -17 -18 -18 -18 -18 -18 -18 -19 -19 -19 -19 -19 -19 -19 -19 -19 -19 -19 -19 -19 -19 -19 -19 -21 -23 -24 -24 -24
-15 -15 -15 -15 -15 -15 -16 -15 -16 -16 -16 -16 -16 -17 -17 -17 -18 -18 -18 -18 -18 -19 -19 -19 -19 -19 -19 -19 -19 -19 -19 -19 -19 -19 -19 -20 -21 -23 -25 -25 -25 -25 -25
-15 -15 -15 -15 -15 -16 -17 -16 -16 -16 -17 -17 -17 -17 -18 -18 -18 -18 -18 -19 -19 -19 -20 -19 -19 -19 -20 -20 -20 -20 -19 -19 -19 -21 -21 -24 -25 -25 -26 -26 -26 -26 -26
-16 -15 -16 -16 -16 -16 -16 -15 -16 -16 -16 -16 -17 -17 -18 -18 -19 -19 -19 -19 -20 -20 -20 -20 -20 -20 -20 -20 -20 -19 -19 -20 -21 -25 -25 -25 -26 -26 -26 -26 -27 -26 -26
-15 -16 -16 -16 -16 -15 -16 -16 -16 -16 -16 -17 -18 -18 -18 -19 -19 -19 -20 -20 -20 -20 -20 -20 -20 -20 -20 -20 -20 -20 -21 -24 -25 -25 -26 -25 -25 -25 -26 -26 -27 -27 -27
-16 -16 -16 -16 -16 -16 -16 -16 -17 -16 -17 -18 -18 -19 -19 -19 -20 -20 -20 -20 -20 -20 -20 -20 -20 -20 -20 -20 -22 -24 -25 -25 -25 -26 -27 -25 -25 -25 -26 -27 -28 -28 -29
-16 -16 -15 -16 -16 -17 -16 -17 -17 -18 -18 -19 -19 -19 -20 -20 -20 -20 -20 -20 -20 -20 -20 -20 -21 -21 -22 -24 -25 -26 -25 -25 -25 -25 -27 -26 -26 -26 -26 -28 -29 -30 -30
Height
5820 5820 5820 5819 5820 5819 5818 5817 5817 5816 5814 5813 5812 5812 5810 5809 5807 5806 5805 5804 5804 5802 5801 5800 5799 5797 5795 5794 5794 5794 5792 5792 5790 5789 5788 5787 5786 5786 5785 5785 5785 5785 5784
5815 5815 5813 5813 5814 5813 5812 5811 5810 5809 5808 5807 5806 5805 5804 5802 5801 5799 5797 5797 5796 5795 5794 5793 5791 5789 5788 5787 5787 5786 5786 5784 5783 5782 5781 5779 5779 5778 5777 5777 5777 5776 5777
5810 5808 5807 5808 5808 5807 5805 5804 5803 5803 5802 5801 5800 5798 5797 5795 5794 5793 5791 5790 5789 5788 5787 5785 5784 5782 5782 5781 5780 5778 5778 5777 5775 5773 5772 5771 5770 5770 5769 5768 5767 5767 5767
5802 5801 5802 5802 5802 5801 5800 5799 5798 5797 5796 5795 5793 5791 5790 5789 5787 5785 5784 5782 5781 5779 5778 5777 5775 5775 5773 5772 5771 5770 5770 5768 5766 5764 5763 5762 5760 5759 5759 5758 5757 5757 5756
5794 5794 5795 5795 5795 5795 5794 5793 5792 5790 5789 5788 5786 5784 5783 5781 5780 5778 5777 5775 5772 5771 5769 5768 5766 5765 5764 5762 5761 5760 5759 5757 5756 5754 5752 5751 5750 5749 5747 5746 5746 5745 5745
5787 5787 5788 5788 5789 5788 5787 5786 5785 5783 5781 5780 5778 5777 5775 5774 5772 5771 5769 5767 5765 5763 5761 5759 5757 5756 5754 5752 5750 5749 5747 5745 5744 5742 5741 5740 5738 5737 5735 5733 5732 5732 5731
5780 5779 5780 5781 5781 5780 5779 5779 5777 5776 5774 5773 5771 5769 5767 5766 5765 5763 5761 5758 5756 5754 5752 5750 5747 5745 5743 5741 5739 5737 5735 5732 5731 5729 5728 5726 5725 5724 5722 5721 5719 5718 5716
5772 5770 5772 5773 5773 5772 5771 5770 5770 5769 5768 5766 5764 5761 5760 5758 5756 5753 5751 5749 5746 5744 5741 5739 5736 5734 5732 5730 5727 5725 5722 5720 5718 5716 5714 5712 5710 5709 5708 5706 5704 5702 5700
5763 5762 5763 5764 5764 5764 5764 5763 5762 5761 5759 5758 5756 5754 5751 5749 5747 5744 5741 5738 5735 5733 5730 5728 5725 5723 5721 5718 5715 5712 5710 5707 5704 5702 5700 5698 5695 5693 5691 5689 5687 5685 5683
5755 5755 5756 5757 5756 5756 5755 5754 5754 5752 5751 5749 5747 5745 5743 5741 5738 5736 5732 5729 5726 5723 5720 5716 5714 5711 5709 5705 5702 5699 5696 5693 5690 5687 5685 5683 5680 5677 5674 5671 5668 5666 5664
5746 5747 5747 5747 5748 5747 5746 5745 5744 5743 5741 5740 5738 5736 5734 5731 5729 5726 5723 5719 5716 5712 5709 5705 5701 5698 5695 5692 5688 5685 5682 5679 5676 5673 5669 5665 5662 5658 5655 5653 5650 5647 5644
5735 5736 5738 5739 5738 5738 5737 5737 5736 5734 5732 5730 5729 5726 5724 5721 5719 5716 5713 5710 5706 5702 5695 5690 5686 5683 5680 5677 5673 5670 5667 5664 5660 5656 5652 5647 5642 5638 5635 5631 5627 5624 5621
5724 5726 5727 5728 5728 5728 5727 5727 5726 5724 5723 5720 5719 5717 5714 5711 5708 5705 5702 5699 5697 5692 5687 5680 5675 5669 5665 5661 5657 5654 5651 5647 5643 5639 5635 5631 5626 5622 5618 5614 5610 5606 5602
5714 5715 5716 5717 5717 5717 5718 5717 5715 5714 5713 5712 5709 5707 5705 5701 5698 5694 5690 5687 5683 5679 5675 5668 5663 5657 5652 5648 5643 5638 5634 5629 5624 5619 5615 5610 5606 5602 5597 5592 5588 5584 5579
5703 5705 5706 5706 5706 5708 5707 5706 5705 5705 5702 5700 5699 5696 5694 5690 5686 5682 5678 5673 5668 5666 5663 5656 5649 5643 5638 5632 5626 5621 5616 5611 5605 5599 5593 5588 5584 5579 5574 5569 5564 5559 5554
5693 5695 5696 5697 5698 5698 5698 5697 5695 5693 5692 5689 5688 5686 5682 5678 5674 5669 5664 5658 5654 5650 5646 5641 5634 5628 5622 5617 5611 5605 5599 5593 5586 5580 5573 5567 5562 5556 5550 5544 5537 5530 5522
5682 5685 5685 5687 5688 5688 5688 5685 5682 5683 5678 5679 5677 5673 5670 5665 5660 5655 5650 5643 5638 5633 5630 5625 5618 5611 5606 5598 5592 5586 5579 5573 5566 5558 5551 5544 5538 5531 5523 5515 5506 5497 5488
5671 5673 5674 5676 5677 5678 5676 5672 5676 5671 5669 5669 5666 5662 5658 5653 5647 5642 5636 5629 5623 5618 5613 5609 5602 5595 5588 5580 5573 5567 5560 5553 5545 5535 5528 5519 5511 5503 5492 5483 5473 5463 5453
5659 5662 5665 5667 5669 5668 5667 5664 5662 5659 5661 5657 5653 5648 5644 5639 5634 5627 5622 5615 5609 5602 5595 5589 5583 5576 5569 5561 5554 5547 5540 5532 5522 5509 5499 5490 5481 5471 5459 5448 5440 5434 5430
5649 5653 5656 5658 5658 5657 5656 5655 5655 5653 5650 5646 5641 5636 5631 5626 5619 5614 5607 5600 5593 5586 5578 5570 5563 5556 5549 5541 5533 5526 5521 5508 5499 5483 5471 5462 5452 5440 5427 5421 5418 5412 5409
5641 5644 5646 5647 5648 5648 5646 5642 5642 5641 5638 5634 5628 5624 5617 5611 5605 5598 5591 5584 5577 5569 5561 5552 5546 5538 5530 5521 5512 5504 5494 5485 5474 5453 5442 5433 5421 5415 5406 5401 5397 5393 5389
5633 5636 5637 5637 5639 5641 5638 5634 5631 5630 5626 5620 5615 5609 5603 5596 5589 5583 5575 5567 5559 5551 5542 5534 5526 5518 5509 5498 5489 5479 5468 5458 5451 5424 5412 5412 5401 5401 5392 5386 5379 5375 5370
5626 5627 5630 5628 5630 5631 5627 5625 5621 5618 5614 5609 5602 5596 5588 5580 5574 5566 5558 5549 5541 5532 5521 5512 5504 5493 5486 5473 5463 5453 5439 5427 5416 5403 5395 5400 5386 5385 5376 5371 5362 5357 5351
5620 5619 5621 5621 5620 5617 5615 5614 5611 5605 5601 5595 5589 5581 5572 5565 5557 5549 5542 5534 5526 5515 5504 5494 5481 5470 5457 5447 5434 5423 5411 5402 5397 5388 5377 5385 5373 5371 5364 5356 5345 5337 5329
5613 5612 5613 5612 5611 5610 5607 5604 5599 5595 5588 5580 5573 5565 5558 5550 5541 5534 5526 5517 5508 5496 5482 5468 5454 5442 5431 5418 5405 5397 5390 5387 5383 5376 5360 5366 5361 5355 5349 5342 5330 5317 5310
5607 5606 5604 5605 5603 5600 5597 5593 5588 5581 5574 5567 5558 5549 5542 5534 5525 5515 5506 5496 5487 5475 5462 5446 5429 5414 5403 5393 5385 5380 5377 5373 5367 5365 5347 5349 5344 5332 5334 5327 5317 5304 5299
Wind_Speed
29 28 28 28 27 27 27 29 29 29 28 28 29 30 31 33 33 34 35 35 35 34 33 32 33 34 35 36 35 33 31 31 29 28 27 28 28 30 31 32 31 29 29
29 29 30 29 28 28 29 30 28 28 29 29 29 30 31 31 31 32 33 33 33 34 33 33 32 32 33 33 33 32 31 31 30 30 31 32 32 32 34 35 36 36 35
29 30 31 28 28 28 29 29 28 28 28 30 31 31 31 31 31 31 32 32 32 33 33 33 32 32 32 32 33 34 34 35 36 36 36 36 36 36 37 38 39 39 39
29 31 30 28 27 27 28 28 29 29 29 31 32 32 32 32 32 33 34 34 34 35 35 36 37 37 37 37 37 38 38 40 40 40 40 41 41 41 40 41 42 42 43
31 30 29 27 27 27 27 27 27 28 30 31 33 34 34 34 34 35 36 36 37 37 38 40 40 40 43 43 42 43 44 44 45 44 45 45 44 44 45 45 45 45 47
32 33 31 27 28 28 28 28 29 30 30 31 33 33 34 36 37 37 37 37 39 40 42 43 44 45 45 46 46 47 48 47 47 47 47 47 47 48 48 47 48 50 52
30 32 33 32 32 30 30 31 31 32 32 33 35 35 35 37 38 39 39 39 39 40 41 43 45 47 48 48 48 49 49 49 49 49 49 50 50 51 50 50 52 54 58
31 34 33 31 33 34 34 35 33 34 35 35 36 36 37 38 38 39 40 41 41 42 44 45 46 47 48 49 51 51 50 50 50 51 52 53 54 52 53 55 59 61 60
36 36 34 32 33 36 36 36 37 37 37 36 36 36 36 37 38 40 41 42 43 44 45 45 45 46 47 47 49 49 50 51 52 53 55 55 55 57 60 62 63 61 61
40 40 37 35 35 35 35 35 37 37 37 37 38 40 40 39 39 40 41 42 44 45 46 47 48 49 50 51 51 52 53 54 55 55 55 58 61 64 64 64 63 63 63
43 42 40 39 38 39 38 38 38 38 37 37 40 41 41 41 42 42 43 45 45 46 48 49 50 51 52 53 54 54 54 53 54 57 61 63 65 65 65 65 66 67 68
48 47 45 43 42 43 41 41 39 40 41 40 39 40 41 42 43 44 45 46 46 48 50 53 54 54 55 56 56 55 54 56 59 61 62 64 66 67 67 68 69 70 71
50 50 49 48 47 45 45 44 41 42 42 42 42 42 42 42 44 46 47 48 48 49 51 52 54 56 57 56 56 57 59 61 62 63 63 65 66 66 68 69 71 72 73
51 49 50 50 49 47 46 45 44 44 43 44 44 44 43 44 46 47 48 50 51 53 53 55 55 57 56 58 60 62 64 65 65 65 66 67 67 68 70 72 73 75 78
52 48 49 48 49 49 49 46 46 46 44 47 44 45 45 46 48 49 51 54 57 56 55 57 57 58 60 62 62 64 65 65 66 67 69 70 71 73 75 78 80 83 86
55 50 48 48 49 47 48 47 47 46 46 43 47 47 47 48 50 52 53 57 60 61 61 62 63 64 64 63 65 66 66 67 67 68 71 73 76 79 82 85 88 92 95
55 50 48 48 46 47 47 47 47 45 42 44 49 47 49 49 53 55 57 60 63 66 66 67 67 68 67 68 67 67 68 68 69 72 76 79 82 86 89 93 96 99 103
53 51 49 46 47 46 47 48 51 51 42 45 46 50 54 54 56 58 62 65 64 66 67 68 69 68 69 69 69 68 69 72 76 80 83 87 90 94 97 100 104 105 90
55 53 48 46 45 45 44 44 45 37 44 44 48 50 51 54 59 62 64 64 66 68 70 69 70 70 70 68 69 72 74 77 81 87 92 96 98 101 106 102 86 70 65
50 49 45 44 45 45 46 47 39 42 43 50 51 50 55 58 61 61 66 67 68 68 69 71 71 69 69 71 75 77 78 84 88 95 100 102 106 101 83 70 62 59 59
44 43 42 43 43 44 48 47 45 46 50 61 56 56 58 60 61 64 66 67 67 68 69 69 69 72 73 77 80 83 88 91 97 104 107 98 85 68 60 59 58 58 59
40 37 41 41 40 41 38 42 45 49 59 51 55 58 57 59 62 64 65 67 67 67 68 72 74 77 80 84 88 92 96 100 102 94 83 62 55 52 54 56 58 59 59
33 36 35 41 36 43 36 49 51 56 55 59 55 59 60 61 63 65 64 64 66 70 74 78 79 83 86 92 97 101 105 103 84 58 53 47 54 52 54 55 58 59 61
28 29 31 37 39 45 46 47 51 52 58 55 57 58 59 61 62 62 64 67 70 73 77 81 86 90 97 101 105 102 86 66 45 48 54 46 52 51 52 54 57 60 61
30 31 31 32 41 46 51 54 51 52 53 55 57 59 58 58 62 66 69 71 74 80 85 90 95 100 104 99 86 67 48 43 44 46 54 49 50 51 52 52 54 56 56
31 35 38 36 38 39 40 45 49 51 53 53 55 56 59 63 66 69 73 76 80 85 91 97 102 98 84 66 53 45 45 44 46 47 56 54 53 57 53 48 44 47 48
Wind_Direction
277 280 277 274 277 277 281 282 283 283 283 281 279 274 271 274 277 279 280 281 281 283 283 282 281 277 274 272 272 274 277 274 274 281 287 292 295 294 290 284 277 274 273
274 277 278 280 279 280 279 280 282 283 283 282 281 279 277 276 278 280 281 283 283 283 285 284 286 283 274 272 271 271 272 273 275 278 281 284 288 289 287 282 277 273 272
272 274 276 279 280 278 279 282 285 284 282 281 280 279 278 279 279 279 280 282 283 283 282 283 283 283 281 276 272 272 272 275 276 278 280 280 281 284 285 280 276 271 268
267 270 274 277 279 280 283 285 284 285 285 283 281 281 282 281 280 280 280 279 280 281 282 282 282 281 279 277 277 276 275 276 277 279 280 280 280 280 283 280 274 271 269
265 267 271 276 277 277 280 281 284 287 289 289 289 286 285 285 285 284 281 280 280 282 283 282 281 282 280 278 278 278 277 277 278 279 279 279 278 278 281 279 272 270 269
265 262 265 269 272 275 278 281 284 286 289 289 290 289 287 287 287 287 288 286 284 283 284 285 284 284 283 283 281 280 280 280 279 279 279 279 278 278 279 276 273 272 272
267 265 263 264 268 272 275 278 281 286 288 289 291 292 291 289 290 290 290 290 290 289 288 287 287 286 285 284 282 281 280 279 279 278 278 277 277 278 276 275 274 274 275
263 265 265 265 268 271 273 275 280 286 288 288 290 293 294 292 291 291 291 292 293 293 292 292 290 289 288 287 285 283 280 279 278 279 279 280 280 279 277 277 277 277 277
258 262 268 270 269 270 272 275 279 283 285 285 288 291 293 294 293 292 292 293 292 292 292 292 291 289 289 288 287 285 283 283 282 281 281 281 280 279 280 280 280 279 277
259 265 267 268 267 268 271 275 276 279 281 284 286 290 292 292 293 293 293 293 293 294 294 293 292 291 289 287 286 285 285 285 284 283 283 282 282 283 283 283 282 280 279
260 261 265 267 269 269 273 273 275 280 281 283 285 288 289 291 292 293 293 294 295 297 297 295 294 293 291 289 287 286 285 285 284 285 286 286 285 284 284 283 282 282 281
259 259 262 267 269 271 272 271 274 278 282 286 285 286 287 289 291 292 293 296 298 299 299 298 297 294 293 291 289 288 286 287 288 288 288 288 287 287 287 287 287 286 285
261 262 262 263 267 269 272 272 273 275 278 283 286 285 285 287 289 290 293 295 296 295 296 295 294 294 294 292 290 289 289 290 290 290 288 287 286 285 285 284 284 283 283
261 259 262 263 264 266 273 275 275 277 280 283 285 286 285 287 287 289 292 293 292 292 294 297 294 294 292 292 292 292 292 292 292 291 289 287 285 284 284 284 284 284 283
255 257 261 263 264 267 272 274 276 280 272 286 286 286 285 285 287 289 290 290 291 293 295 297 293 293 294 294 293 294 294 293 291 289 288 287 287 286 286 286 286 286 286
253 254 258 260 264 268 271 274 276 277 281 272 287 286 286 287 289 289 290 291 293 294 295 296 294 295 296 295 294 294 292 291 288 288 288 288 288 288 288 290 290 290 288
250 253 256 259 264 266 270 275 279 261 280 282 288 287 286 288 289 289 290 291 292 293 292 295 296 297 296 295 295 294 292 291 290 291 289 289 290 291 293 294 293 293 292
248 253 255 258 262 266 269 271 268 271 283 285 288 289 287 285 284 288 289 289 289 292 295 295 296 296 296 295 294 292 292 292 291 290 291 293 295 297 297 297 296 295 292
246 250 254 259 263 267 272 258 278 271 287 286 286 289 294 293 289 287 288 288 294 294 295 297 297 296 295 294 294 294 294 294 293 295 297 298 299 300 299 298 294 288 285
244 250 255 260 264 266 268 268 266 279 286 288 289 288 288 287 287 286 292 293 294 296 297 296 296 295 295 296 295 294 293 295 297 297 298 300 300 300 294 289 289 287 287
246 249 253 258 261 264 266 258 286 265 275 283 281 285 286 287 290 291 293 295 296 296 297 296 296 297 297 296 295 296 297 298 299 300 300 300 295 290 288 290 290 290 291
244 248 251 257 262 261 275 281 271 269 272 275 282 291 292 293 294 294 295 296 298 298 297 298 298 298 297 298 298 298 299 299 299 298 295 289 285 288 287 290 290 290 290
243 250 258 258 256 260 261 256 268 264 272 281 293 294 293 294 294 296 298 299 300 299 300 301 300 299 300 300 301 302 302 302 301 290 284 287 286 288 288 289 289 289 289
247 245 259 261 270 261 266 260 268 287 291 289 290 292 296 296 297 298 299 299 299 300 298 299 300 301 302 303 303 303 302 300 292 289 288 290 287 287 287 290 290 290 287
249 251 266 260 268 269 263 272 287 288 291 294 295 295 297 298 298 297 301 300 299 300 302 303 302 303 303 304 303 301 298 296 294 293 293 294 291 290 291 292 292 287 284
246 261 256 262 279 294 290 289 289 292 295 296 299 298 298 300 301 301 301 302 303 303 303 303 305 305 304 302 301 300 299 297 295 295 293 296 295 293 293 292 287 282 284